Weather History for KF70 - January, 2014

Change the Weather History Date:

Friday, January 17, 2014

  Actual Average (KNFG) Record (KNFG)
Temperature  
Mean Temperature 62 °F -  
Max Temperature 82 °F 65 °F 73 °F (2015)
Min Temperature 42 °F 39 °F 37 °F (2015)
Degree Days  
Heating Degree Days 3    
Growing Degree Days 12 (Base 50)    
Moisture  
Dew Point 14 °F    
Average Humidity 20    
Maximum Humidity 34    
Minimum Humidity 6    
Precipitation  
Precipitation 0.00 in - - ()
Sea Level Pressure  
Sea Level Pressure 30.11 in    
Wind  
Wind Speed 4 mph (NNE)    
Max Wind Speed 9 mph    
Max Gust Speed -    
Visibility 10 miles    
Events      
Averages and records for this station are not official NWS values.
T = Trace of Precipitation, MM = Missing Value Source: NWS Daily Summary

Daily Weather History Graph

Daily Weather History Graph

Search for Another Location

Airport or City:

Trip Planner

Search our weather history database for the weather conditions in past years. The results will help you decide how hot, cold, wet, or windy it might be!

Date:

Astronomy

Jan. 17, 2014 Rise Set
Actual Time 6:52 AM PST 5:05 PM PST
Civil Twilight 6:25 AM PST 5:32 PM PST
Nautical Twilight 5:54 AM PST 6:02 PM PST
Astronomical Twilight 5:25 AM PST 6:32 PM PST
Moon 6:48 PM PST (1/17) 7:29 AM PST (1/17)
Length of Visible Light 11h 06m
Length of Day
10h 13m
Full, 98% of the Moon is Illuminated
Jan 17
Full
Jan 23
Last Quarter
Jan 30
New
Feb 6
First Quarter
Feb 14
Full

Hourly Weather History & Observations

Time (PST) Temp. Windchill Dew Point Humidity Pressure Visibility Wind Dir Wind Speed Gust Speed Precip Events Conditions
12:15 AM 50.0 °F - 15.8 °F 26% 30.12 in 10.0 mi North 5.8 mph - N/A   Clear
12:35 AM 48.2 °F - 15.8 °F 27% 30.13 in 10.0 mi East 3.5 mph - N/A   Clear
12:55 AM 51.8 °F - 15.8 °F 24% 30.12 in 10.0 mi NNE 3.5 mph - N/A   Clear
1:15 AM 48.2 °F - 15.8 °F 27% 30.12 in 10.0 mi Calm Calm - N/A   Clear
1:35 AM 48.2 °F - 15.8 °F 27% 30.13 in 10.0 mi North 4.6 mph - N/A   Clear
1:55 AM 46.4 °F - 17.6 °F 32% 30.13 in 10.0 mi Calm Calm - N/A   Clear
2:15 AM 46.4 °F 45.2 °F 14.0 °F 27% 30.13 in 10.0 mi NNE 3.5 mph - N/A   Clear
2:35 AM 46.4 °F 45.2 °F 14.0 °F 27% 30.13 in 10.0 mi North 3.5 mph - N/A   Clear
2:55 AM 46.4 °F 44.3 °F 14.0 °F 27% 30.13 in 10.0 mi North 4.6 mph - N/A   Clear
3:15 AM 44.6 °F 41.4 °F 14.0 °F 29% 30.14 in 10.0 mi North 5.8 mph - N/A   Clear
3:35 AM 46.4 °F 42.9 °F 15.8 °F 29% 30.13 in 10.0 mi North 6.9 mph - N/A   Clear
3:55 AM 44.6 °F 39.7 °F 15.8 °F 31% 30.13 in 10.0 mi NNE 9.2 mph - N/A   Clear
4:15 AM 46.4 °F 42.9 °F 15.8 °F 29% 30.14 in 10.0 mi NNE 6.9 mph - N/A   Clear
4:35 AM 46.4 °F 44.3 °F 14.0 °F 27% 30.15 in 10.0 mi NNE 4.6 mph - N/A   Clear
4:55 AM 46.4 °F 45.2 °F 15.8 °F 29% 30.14 in 10.0 mi North 3.5 mph - N/A   Clear
5:15 AM 44.6 °F 40.7 °F 15.8 °F 31% 30.14 in 10.0 mi NNE 6.9 mph - N/A   Clear
5:35 AM 44.6 °F 41.4 °F 15.8 °F 31% 30.14 in 10.0 mi NNE 5.8 mph - N/A   Clear
5:55 AM 42.8 °F 39.3 °F 15.8 °F 34% 30.15 in 10.0 mi NNE 5.8 mph - N/A   Clear
6:15 AM 44.6 °F 42.2 °F 15.8 °F 31% 30.15 in 10.0 mi North 4.6 mph - N/A   Clear
6:35 AM 44.6 °F 40.7 °F 15.8 °F 31% 30.15 in 10.0 mi NNE 6.9 mph - N/A   Clear
6:55 AM 44.6 °F 40.7 °F 14.0 °F 29% 30.15 in 10.0 mi NNE 6.9 mph - N/A   Clear
7:15 AM 46.4 °F 44.3 °F 14.0 °F 27% 30.15 in 10.0 mi North 4.6 mph - N/A   Clear
7:35 AM 46.4 °F 42.9 °F 15.8 °F 29% 30.16 in 10.0 mi NNE 6.9 mph - N/A   Clear
7:55 AM 48.2 °F - 19.4 °F 32% 30.16 in 10.0 mi Calm Calm - N/A   Clear
8:15 AM 50.0 °F - 17.6 °F 28% 30.17 in 10.0 mi North 3.5 mph - N/A   Clear
8:35 AM 53.6 °F - 17.6 °F 24% 30.17 in 10.0 mi North 5.8 mph - N/A   Clear
8:55 AM 57.2 °F - 15.8 °F 20% 30.17 in 10.0 mi North 8.1 mph - N/A   Clear
9:15 AM 60.8 °F - 15.8 °F 17% 30.17 in 10.0 mi North 8.1 mph - N/A   Clear
9:35 AM 64.4 °F - 17.6 °F 16% 30.17 in 10.0 mi North 5.8 mph - N/A   Clear
9:55 AM 68.0 °F - 15.8 °F 13% 30.17 in 10.0 mi NNE 8.1 mph - N/A   Clear
10:15 AM 71.6 °F - 15.8 °F 12% 30.16 in 10.0 mi North 4.6 mph - N/A   Clear
10:35 AM 75.2 °F - 15.8 °F 11% 30.15 in 10.0 mi North 9.2 mph - N/A   Clear
10:55 AM 75.2 °F - 10.4 °F 8% 30.14 in 10.0 mi North 9.2 mph - N/A   Clear
11:15 AM 77.0 °F - 8.6 °F 7% 30.13 in 10.0 mi North 9.2 mph - N/A   Clear
11:35 AM 77.0 °F - 10.4 °F 8% 30.11 in 10.0 mi North 8.1 mph - N/A   Clear
11:55 AM 77.0 °F - 10.4 °F 8% 30.10 in 10.0 mi North 8.1 mph - N/A   Clear
12:15 PM 78.8 °F - 8.6 °F 7% 30.09 in 10.0 mi North 4.6 mph - N/A   Clear
12:35 PM 78.8 °F - 8.6 °F 7% 30.08 in 10.0 mi North 5.8 mph - N/A   Clear
12:55 PM 80.6 °F - 8.6 °F 6% 30.07 in 10.0 mi NNW 4.6 mph - N/A   Clear
1:15 PM 80.6 °F - 8.6 °F 6% 30.06 in 10.0 mi North 8.1 mph - N/A   Clear
1:35 PM 80.6 °F - 8.6 °F 6% 30.06 in 10.0 mi North 4.6 mph - N/A   Clear
1:55 PM 80.6 °F - 8.6 °F 6% 30.06 in 10.0 mi North 5.8 mph - N/A   Clear
2:15 PM 80.6 °F - 8.6 °F 6% 30.06 in 10.0 mi Calm Calm - N/A   Clear
2:35 PM 82.4 °F - 8.6 °F 6% 30.05 in 10.0 mi North 6.9 mph - N/A   Clear
2:55 PM 82.4 °F - 6.8 °F 6% 30.05 in 10.0 mi Calm Calm - N/A   Clear
3:15 PM 82.4 °F - 8.6 °F 6% 30.05 in 10.0 mi North 5.8 mph - N/A   Clear
3:35 PM 80.6 °F - 8.6 °F 6% 30.05 in 10.0 mi North 3.5 mph - N/A   Clear
3:55 PM 80.6 °F - 8.6 °F 6% 30.05 in 10.0 mi North 3.5 mph - N/A   Clear
4:15 PM 80.6 °F - 8.6 °F 6% 30.05 in 10.0 mi North 4.6 mph - N/A   Clear
4:35 PM 78.8 °F - 10.4 °F 7% 30.06 in 10.0 mi Calm Calm - N/A   Clear
4:55 PM 73.4 °F - 14.0 °F 10% 30.06 in 10.0 mi South 6.9 mph - N/A   Clear
5:15 PM 71.6 °F - 15.8 °F 12% 30.07 in 10.0 mi South 5.8 mph - N/A   Clear
5:35 PM 68.0 °F - 17.6 °F 15% 30.08 in 10.0 mi SSE 5.8 mph - N/A   Clear
5:55 PM 68.0 °F - 17.6 °F 15% 30.08 in 10.0 mi SSE 4.6 mph - N/A   Clear
6:15 PM 66.2 °F - 17.6 °F 15% 30.08 in 10.0 mi Calm Calm - N/A   Clear
6:35 PM 64.4 °F - 17.6 °F 16% 30.08 in 10.0 mi Calm Calm - N/A   Clear
6:55 PM 64.4 °F - 17.6 °F 16% 30.09 in 10.0 mi Calm Calm - N/A   Clear
7:15 PM 62.6 °F - 17.6 °F 18% 30.09 in 10.0 mi Calm Calm - N/A   Clear
7:35 PM 60.8 °F - 19.4 °F 20% 30.09 in 10.0 mi Calm Calm - N/A   Clear
7:55 PM 57.2 °F - 19.4 °F 23% 30.09 in 10.0 mi Calm Calm - N/A   Clear
8:15 PM 57.2 °F - 19.4 °F 23% 30.10 in 10.0 mi Calm Calm - N/A   Clear
8:35 PM 53.6 °F - 21.2 °F 28% 30.10 in 10.0 mi Calm Calm - N/A   Clear
8:55 PM 53.6 °F - 19.4 °F 26% 30.10 in 10.0 mi Calm Calm - N/A   Clear
9:15 PM 53.6 °F - 17.6 °F 24% 30.10 in 10.0 mi Calm Calm - N/A   Clear
9:35 PM 53.6 °F - 15.8 °F 22% 30.11 in 10.0 mi Calm Calm - N/A   Clear
9:55 PM 51.8 °F - 15.8 °F 24% 30.11 in 10.0 mi Calm Calm - N/A   Clear
10:15 PM 51.8 °F - 15.8 °F 24% 30.11 in 10.0 mi Calm Calm - N/A   Clear
10:35 PM 50.0 °F - 15.8 °F 26% 30.11 in 10.0 mi NE 3.5 mph - N/A   Clear
10:55 PM 50.0 °F - 15.8 °F 26% 30.10 in 10.0 mi Calm Calm - N/A   Clear
11:15 PM 48.2 °F - 15.8 °F 27% 30.10 in 10.0 mi North 4.6 mph - N/A   Clear
11:35 PM 50.0 °F - 15.8 °F 26% 30.10 in 10.0 mi Calm Calm - N/A   Clear
11:55 PM 48.2 °F - 15.8 °F 27% 30.10 in 10.0 mi Calm Calm - N/A   Clear